Weather History for Richmond, KY

Change the Weather History Date:

Tuesday, June 18, 2013

  Actual Average (KLOZ) Record (KLOZ)
Temperature  
Mean Temperature 70 °F 74 °F  
Max Temperature 78 °F 84 °F 93 °F (2014)
Min Temperature 62 °F 63 °F 48 °F (1999)
Degree Days  
Heating Degree Days 0 0  
Month to date heating degree days 7  
Since 1 June heating degree days 7  
Since 1 July heating degree days 4203  
Cooling Degree Days 5 9  
Growing Degree Days 20 (Base 50)    
Moisture  
Dew Point 63 °F    
Average Humidity 82    
Maximum Humidity 94    
Minimum Humidity 57    
Precipitation  
Precipitation 0.00 in 0.14 in 1.88 in (1992)
Sea Level Pressure  
Sea Level Pressure 29.94 in    
Wind  
Wind Speed 2 mph (ENE)    
Max Wind Speed 18 mph    
Max Gust Speed 33 mph    
Visibility 8 miles    
Events      
T = Trace of Precipitation, MM = Missing Value Source: NWS Daily Summary

Daily Weather History Graph

Daily Weather History Graph

Search for Another Location

Airport:

Trip Planner

Search our weather history database for the weather conditions in past years. The results will help you decide how hot, cold, wet, or windy it might be!

Date:

Astronomy

Jun. 18, 2013 Rise Set
Actual Time 6:15 AM EDT 9:01 PM EDT
Civil Twilight 5:44 AM EDT 9:32 PM EDT
Nautical Twilight 5:05 AM EDT 10:11 PM EDT
Astronomical Twilight 4:20 AM EDT 10:56 PM EDT
Moon 3:49 PM EDT (6/18) 2:18 AM EDT (6/18)
Length of Visible Light 15h 48m
Length of Day
14h 45m
Waxing Gibbous, 70% of the Moon is Illuminated
Jun 18
Waxing Gibbous
Jun 23
Full
Jun 30
Last Quarter
Jul 8
New
Jul 15
First Quarter

Hourly Weather History & Observations

Time (EDT) Temp. Dew Point Humidity Pressure Visibility Wind Dir Wind Speed Gust Speed Precip Events Conditions
12:15 AM 66.2 °F 60.8 °F 83% 29.95 in 10.0 mi Calm Calm - N/A   Mostly Cloudy
12:35 AM 64.4 °F 62.6 °F 94% 29.94 in 10.0 mi Calm Calm - N/A   Overcast
12:55 AM 64.4 °F 62.6 °F 94% 29.93 in 10.0 mi Calm Calm - N/A   Overcast
1:15 AM 64.4 °F 62.6 °F 94% 29.93 in 10.0 mi Calm Calm - N/A   Mostly Cloudy
1:35 AM 64.4 °F 60.8 °F 88% 29.92 in 10.0 mi SSE 4.6 mph - N/A   Overcast
1:55 AM 64.4 °F 62.6 °F 94% 29.93 in 10.0 mi Calm Calm - N/A   Overcast
2:15 AM 64.4 °F 62.6 °F 94% 29.92 in 10.0 mi SW 3.5 mph - N/A   Overcast
2:35 AM 64.4 °F 62.6 °F 94% 29.91 in 10.0 mi SSW 3.5 mph - N/A   Overcast
2:55 AM 64.4 °F 62.6 °F 94% 29.91 in 10.0 mi Calm Calm - N/A   Overcast
3:15 AM 64.4 °F 62.6 °F 94% 29.92 in 7.0 mi Calm Calm - N/A   Overcast
3:35 AM 64.4 °F 62.6 °F 94% 29.92 in 4.0 mi Calm Calm - N/A   Overcast
3:55 AM 64.4 °F 62.6 °F 94% 29.91 in 4.0 mi NNE 3.5 mph - N/A   Overcast
4:15 AM 64.4 °F 62.6 °F 94% 29.91 in 5.0 mi Calm Calm - N/A   Overcast
4:35 AM 64.4 °F 62.6 °F 94% 29.91 in 5.0 mi Calm Calm - N/A   Overcast
4:55 AM 64.4 °F 62.6 °F 94% 29.91 in 5.0 mi Calm Calm - N/A   Overcast
5:15 AM 64.4 °F 62.6 °F 94% 29.91 in 4.0 mi Calm Calm - N/A   Overcast
5:35 AM 64.4 °F 62.6 °F 94% 29.91 in 4.0 mi Calm Calm - N/A   Overcast
5:55 AM 64.4 °F 62.6 °F 94% 29.92 in 4.0 mi Calm Calm - N/A   Overcast
6:15 AM 64.4 °F 62.6 °F 94% 29.92 in 4.0 mi Calm Calm - N/A   Overcast
6:35 AM 64.4 °F 62.6 °F 94% 29.92 in 4.0 mi Calm Calm - N/A   Overcast
6:55 AM 64.4 °F 62.6 °F 94% 29.92 in 4.0 mi Calm Calm - N/A   Overcast
7:15 AM 64.4 °F 62.6 °F 94% 29.91 in 4.0 mi Calm Calm - N/A   Overcast
7:35 AM 64.4 °F 62.6 °F 94% 29.91 in 2.5 mi Calm Calm - N/A   Overcast
7:55 AM 64.4 °F 62.6 °F 94% 29.91 in 2.5 mi South 3.5 mph - N/A   Overcast
8:15 AM 64.4 °F 62.6 °F 94% 29.91 in 3.0 mi South 4.6 mph - N/A   Overcast
8:35 AM 64.4 °F 62.6 °F 94% 29.93 in 10.0 mi Calm Calm - N/A   Overcast
8:55 AM 64.4 °F 62.6 °F 94% 29.95 in 7.0 mi North 3.5 mph - N/A   Overcast
9:15 AM 64.4 °F 62.6 °F 94% 29.96 in 7.0 mi Calm Calm - N/A   Overcast
9:35 AM 64.4 °F 62.6 °F 94% 29.96 in 5.0 mi North 3.5 mph - N/A   Overcast
9:55 AM 64.4 °F 62.6 °F 94% 29.96 in 5.0 mi North 3.5 mph - N/A   Overcast
10:15 AM 64.4 °F 62.6 °F 94% 29.97 in 10.0 mi North 3.5 mph - N/A   Overcast
10:35 AM 66.2 °F 62.6 °F 88% 29.96 in 10.0 mi NE 3.5 mph - N/A   Overcast
10:55 AM 66.2 °F 64.4 °F 94% 29.96 in 10.0 mi Calm Calm - N/A   Overcast
11:15 AM 66.2 °F 64.4 °F 94% 29.97 in 10.0 mi NNE 3.5 mph - N/A   Overcast
11:35 AM 68.0 °F 64.4 °F 88% 29.96 in 10.0 mi NE 4.6 mph - N/A   Overcast
11:55 AM 68.0 °F 64.4 °F 88% 29.96 in 10.0 mi NE 4.6 mph - N/A   Overcast
12:15 PM 68.0 °F 64.4 °F 88% 29.95 in 10.0 mi East 5.8 mph - N/A   Overcast
12:35 PM 69.8 °F 64.4 °F 83% 29.95 in 10.0 mi ENE 5.8 mph - N/A   Overcast
12:55 PM 69.8 °F 62.6 °F 78% 29.95 in 10.0 mi NE 3.5 mph - N/A   Overcast
1:15 PM 71.6 °F 62.6 °F 73% 29.94 in 10.0 mi East 5.8 mph - N/A   Overcast
1:35 PM 71.6 °F 62.6 °F 73% 29.93 in 10.0 mi East 3.5 mph - N/A   Scattered Clouds
1:55 PM 73.4 °F 62.6 °F 69% 29.94 in 10.0 mi East 3.5 mph - N/A   Clear
2:15 PM 73.4 °F 62.6 °F 69% 29.94 in 10.0 mi NNE 4.6 mph - N/A   Scattered Clouds
2:35 PM 75.2 °F 62.6 °F 65% 29.94 in 10.0 mi NNE 3.5 mph - N/A   Scattered Clouds
2:55 PM 75.2 °F 62.6 °F 65% 29.93 in 10.0 mi NW 3.5 mph - N/A   Mostly Cloudy
3:15 PM 77.0 °F 62.6 °F 61% 29.93 in 10.0 mi North 3.5 mph - N/A   Mostly Cloudy
3:35 PM 77.0 °F 64.4 °F 65% 29.93 in 10.0 mi Calm Calm - N/A   Mostly Cloudy
3:55 PM 75.2 °F 62.6 °F 65% 29.93 in 10.0 mi Calm Calm - N/A   Overcast
4:15 PM 77.0 °F 62.6 °F 61% 29.93 in 10.0 mi Calm Calm - N/A   Scattered Clouds
4:35 PM 77.0 °F 64.4 °F 65% 29.93 in 10.0 mi Calm Calm - N/A   Scattered Clouds
4:55 PM 78.8 °F 64.4 °F 61% 29.93 in 10.0 mi Calm Calm - N/A   Scattered Clouds
5:15 PM 78.8 °F 64.4 °F 61% 29.93 in 10.0 mi Calm Calm - N/A   Scattered Clouds
5:35 PM 78.8 °F 62.6 °F 57% 29.92 in 10.0 mi Calm Calm - N/A   Scattered Clouds
5:55 PM 78.8 °F 64.4 °F 61% 29.90 in 10.0 mi Calm Calm - N/A   Scattered Clouds
6:15 PM 78.8 °F 64.4 °F 61% 29.89 in 10.0 mi ESE 4.6 mph - N/A   Scattered Clouds
6:35 PM 78.8 °F 64.4 °F 61% 29.88 in 10.0 mi SE 5.8 mph - N/A   Clear
6:55 PM 78.8 °F 64.4 °F 61% 29.88 in 10.0 mi Calm Calm - N/A   Clear
7:15 PM 78.8 °F 64.4 °F 61% 29.89 in 10.0 mi Calm Calm - N/A   Clear
7:35 PM 78.8 °F 64.4 °F 61% 29.90 in 10.0 mi SSW 3.5 mph - N/A   Clear
7:55 PM 77.0 °F 64.4 °F 65% 29.92 in 10.0 mi Calm Calm - N/A   Clear
8:15 PM 77.0 °F 64.4 °F 65% 29.93 in 10.0 mi Calm Calm - N/A   Clear
8:35 PM 75.2 °F 66.2 °F 73% 29.93 in 10.0 mi Calm Calm - N/A   Clear
8:55 PM 75.2 °F 64.4 °F 69% 29.93 in 7.0 mi Calm Calm - N/A   Clear
9:15 PM 73.4 °F 64.4 °F 73% 29.94 in 10.0 mi Calm Calm - N/A   Clear
9:35 PM 73.4 °F 64.4 °F 73% 29.95 in 10.0 mi Calm Calm - N/A   Scattered Clouds
9:55 PM 66.2 °F 57.2 °F 73% 29.99 in 10.0 mi NNW 18.4 mph 33.4 mph N/A   Mostly Cloudy
10:15 PM 62.6 °F 57.2 °F 82% 30.01 in 3.0 mi North 15.0 mph 23.0 mph N/A   Overcast
10:35 PM 62.6 °F 59.0 °F 88% 30.02 in 10.0 mi NNE 12.7 mph 17.3 mph N/A   Overcast
10:55 PM 62.6 °F 59.0 °F 88% 30.02 in 7.0 mi NE 5.8 mph - N/A   Overcast
11:15 PM 62.6 °F 59.0 °F 88% 30.01 in 10.0 mi East 5.8 mph - N/A   Overcast
11:35 PM 62.6 °F 59.0 °F 88% 29.98 in 10.0 mi ESE 8.1 mph - N/A   Overcast
11:55 PM 62.6 °F 60.8 °F 94% 29.98 in 10.0 mi SE 3.5 mph - N/A   Overcast